Weather in Gostilitsy

Russia / Saint-Petersburg and Leningrad Oblast     59°44′45″N   29°37′22″E
temp.,
°C
wind,
m/s
gust,
m/s
humid.,
%
clouds,
%
prec.,
mm/h
press.,
hPa
HPBL,
m
14 april, wed
wed1400:00+3wnw3864100 0.1 1020520
03:00+3nw2766100 0.2 1020349
06:00+2wnw2776100 0.1 1019305
09:00+3nw3768100 0.1 1020429
12:00+6nw455141 0.0 1021935
15:00+7wnw454663 0.0 1022924
18:00+6nw4558100 0.0 1023613
21:00+3nw3980100 0.0 1025319
15 april, thu
thu1500:00+2n2676100 0.0 1026143
03:00+1ne287897 0.0 1027244
06:000ne298369 0.0 1028240
09:00+3ne496262 0.0 1029727
12:00+6ne58426 0.0 10301066
15:00+8ne58365 0.0 10291191
18:00+6ne59445 0.0 10301005
21:00+3ne412575 0.0 1030540
16 april, fri
fri1600:00+1ene311735 0.0 1030358
03:00+1ene312825 0.0 1030338
06:000ene4138353 0.0 1030357
09:00+4ene5136072 0.0 1031583
12:00+8ene694190 0.0 1031879
15:00+9ene6843100 0.0 1031958
18:00+8ene51050100 0.0 1030703
21:00+5ene4126175 0.0 1031387
17 april, sat
sat1700:00+4ene41270100 0.0 1032352
03:00+2ene31177100 0.0 1032291
06:00+1e3118060 0.0 1033266
09:00+6e4105972 0.0 1033411
12:00+11e574030 0.0 1033943
15:00+13e573417 0.0 10321282
18:00+12ene47415 0.0 10311234
21:00+6ene396611 0.0 1032230
18 april, sun
sun1800:00+4e27775 0.0 1033135
03:00+3ese24785 0.0 103374
06:00+3ese24785 0.0 103361
09:00+8ese36585 0.0 1033318
12:00+12ese35435 0.0 10331119
15:00+14ese34365 0.0 10321480
18:00+13ese35395 0.0 10311530
21:00+8e37665 0.0 1032164